Starlink 30700

operational
NORAD ID: 57953 Int'l Des: 2023-148 Owner: SPXS Country: US Constellation: starlink
LEOCIRCULAR

Starlink 30700について

説明を読み込み中...

リアルタイム位置

3D地球を読み込み中...

次回通過

高度履歴

Altitude vs Time

uPlot chart will show altitude changes over time

軌道要素

1 57953U 23148U 25258.28570770 .00000297 00000-0 22137-4 0 9992
2 57953 53.1601 108.9474 0000763 81.7345 278.3742 15.30198363111706
Epoch: Sep 15, 2025 • Age: 15 hours

現在のステータス

高度 482.5 km
速度 7.62 km/s
衛星直下点 -24.08°S, 17.83°W
打ち上げ日 Sep 25, 2023
運用期間 1.9 years
タイプ internet

技術仕様

分類 Payload
質量 730.00 kg
乾燥質量 700.00 kg
総質量 730.00 kg
長さ 0.30 m
直径 4.10 m
スパン 29.00 m
形状 Box + pan
製造者 SPXS
バスタイプ Starlink V2M
フェーズステータス In Orbit
所有者/国 SPXS/US

大規模コンステレーション

Loading constellations...